EW2875 Weather Reports


Display with metric or nautical units.
time (UTC)temp
F
wind
direction
speed
MPH
gust
MPH
rain 1hr
in
rain 24hr
in
rain mn
in
humidity
%
barometer
mb
20260901040004 52 179 14.0 19.0 0.00 0.01 0.00 90 1008.6
20260901034504 51 175 14.0 21.0 0.00 0.01 0.00 90 1008.7
20260901033004 51 175 14.0 16.0 0.00 0.01 0.00 90 1008.9
20260901031504 52 178 13.0 18.0 0.00 0.01 0.00 90 1009.0
20260901030004 52 180 13.0 16.0 0.00 0.01 0.00 90 1009.1
20260901024504 52 180 11.0 14.0 0.00 0.01 0.00 90 1009.3
20260901023004 52 181 11.0 15.0 0.00 0.01 0.00 91 1009.4
20260901021504 52 180 14.0 18.0 0.00 0.01 0.00 91 1009.4
20260901014504 52 192 10.0 14.0 0.00 0.01 0.00 90 1009.8
20260901013004 53 204 11.0 19.0 0.00 0.01 0.00 89 1009.8
20260901011504 52 209 12.0 19.0 0.00 0.01 0.00 90 1009.8
20260901010004 52 209 11.0 19.0 0.00 0.01 0.00 91 1009.8
20260901004504 52 206 13.0 20.0 0.00 0.01 0.00 91 1009.9
20260901003004 52 209 12.0 18.0 0.00 0.01 0.00 91 1010.1
20260901001504 51 212 12.0 19.0 0.00 0.01 0.00 92 1010.1
20260901000004 51 209 10.0 16.0 0.00 0.01 0.00 92 1010.2
20260831234504 51 204 10.0 13.0 0.00 0.01 0.00 91 1010.4
20260831233004 51 215 8.0 11.0 0.00 0.02 0.00 91 1010.5
20260831231504 52 235 5.0 11.0 0.00 0.02 0.00 91 1010.6
20260831230005 52 239 6.0 11.0 0.00 0.02 0.00 91 1010.6
20260831224504 52 238 7.0 11.0 0.00 0.02 0.02 92 1010.6
20260831223004 52 240 5.0 8.0 0.00 0.02 0.02 92 1010.7
20260831221504 51 248 5.0 9.0 0.00 0.02 0.02 92 1010.7
20260831220004 51 253 5.0 10.0 0.00 0.02 0.02 92 1010.7
20260831214504 51 268 1.0 7.0 0.00 0.02 0.02 92 1010.7
20260831213004 51 267 2.0 7.0 0.00 0.02 0.02 92 1010.7
20260831211504 51 250 3.0 9.0 0.00 0.02 0.02 92 1010.7
20260831210025 51 257 3.0 10.0 0.00 0.02 0.02 92 1010.6
20260831204504 51 261 2.0 8.0 0.00 0.03 0.02 93 1010.5
20260831203004 51 259 2.0 5.0 0.00 0.03 0.02 93 1010.4
20260831201504 52 258 1.0 7.0 0.00 0.03 0.02 92 1010.3
20260831200025 52 275 1.0 3.0 0.00 0.03 0.02 91 1010.2
20260831194525 53 284 1.0 5.0 0.00 0.03 0.02 90 1010.3
20260831193004 53 290 5.0 13.0 0.00 0.03 0.02 90 1010.2
20260831191504 53 289 8.0 14.0 0.00 0.03 0.02 89 1010.0
20260831190004 53 290 8.0 14.0 0.00 0.03 0.02 89 1009.8
20260831184504 54 293 8.0 14.0 0.00 0.04 0.02 90 1009.9
20260831183004 54 294 7.0 15.0 0.00 0.07 0.02 92 1009.6
20260831181525 54 296 9.0 20.0 0.00 0.12 0.02 93 1009.4
20260831180004 55 296 11.0 21.0 0.00 0.17 0.02 93 1009.4
20260831174525 55 290 9.0 20.0 0.00 0.17 0.02 94 1009.2
20260831173004 55 290 8.0 20.0 0.01 0.18 0.02 93 1009.0
20260831171504 56 292 10.0 25.0 0.01 0.19 0.02 93 1008.8
20260831170004 56 291 13.0 23.0 0.01 0.20 0.02 93 1008.7
20260831164504 57 297 11.0 26.0 0.01 0.22 0.02 93 1008.4
20260831163025 57 295 14.0 25.0 0.00 0.22 0.01 93 1008.2
20260831161504 58 292 14.0 25.0 0.00 0.23 0.01 91 1008.0
20260831160025 58 293 14.0 24.0 0.00 0.23 0.01 90 1007.7
20260831154504 59 293 14.0 26.0 0.00 0.24 0.01 88 1007.6
20260831153004 60 291 12.0 23.0 0.00 0.24 0.01 87 1007.2
20260831151504 61 292 10.0 21.0 0.00 0.24 0.01 87 1007.0
20260831150004 61 287 5.0 15.0 0.00 0.24 0.01 86 1006.9
20260831144525 61 296 5.0 13.0 0.00 0.24 0.01 85 1006.8
20260831143025 62 296 12.0 19.0 0.00 0.24 0.01 86 1006.6
20260831141525 62 289 9.0 22.0 0.00 0.24 0.01 90 1006.5
20260831140003 60 289 10.0 19.0 0.00 0.24 0.01 90 1006.3
20260831134503 60 283 8.0 15.0 0.00 0.24 0.01 92 1006.2
20260831133004 61 286 4.0 15.0 0.00 0.24 0.01 90 1006.0
20260831131504 64 298 11.0 19.0 0.00 0.24 0.01 83 1005.8
20260831130004 65 306 11.0 20.0 0.00 0.24 0.01 82 1005.5
20260831124504 65 300 12.0 19.0 0.00 0.24 0.01 83 1005.3
20260831123004 64 300 13.0 20.0 0.00 0.24 0.01 84 1005.3
20260831121503 64 304 9.0 16.0 0.00 0.24 0.01 86 1005.2
20260831120004 64 299 11.0 16.0 0.00 0.24 0.01 85 1005.0
20260831114503 63 298 10.0 18.0 0.00 0.24 0.01 88 1004.8
20260831113003 63 295 6.0 13.0 0.00 0.24 0.01 90 1004.8
20260831111525 63 297 9.0 15.0 0.00 0.24 0.01 92 1004.6
20260831110004 62 287 4.0 12.0 0.00 0.24 0.01 95 1004.5
20260831104503 61 294 8.0 15.0 0.00 0.24 0.01 96 1004.5
20260831103004 61 289 6.0 14.0 0.00 0.24 0.01 96 1004.3
20260831101503 60 295 4.0 13.0 0.00 0.24 0.01 97 1004.2
20260831100004 60 295 6.0 15.0 0.00 0.24 0.01 98 1004.1
20260831094503 59 294 6.0 12.0 0.00 0.24 0.01 99 1004.0
20260831093003 58 296 8.0 13.0 0.00 0.24 0.01 98 1003.9
20260831091503 58 289 6.0 13.0 0.00 0.24 0.01 99 1003.8
20260831090003 57 277 2.0 8.0 0.00 0.24 0.01 99 1003.7
20260831084503 57 268 3.0 10.0 0.00 0.24 0.01 99 1003.6
20260831083003 57 263 3.0 12.0 0.00 0.24 0.01 99 1003.4
20260831081503 57 270 3.0 13.0 0.00 0.24 0.01 99 1003.3
20260831080003 57 263 3.0 9.0 0.00 0.24 0.01 99 1003.2
20260831074503 57 256 4.0 13.0 0.00 0.24 0.01 99 1003.1
20260831073003 56 256 4.0 11.0 0.00 0.24 0.01 99 1003.1
20260831071524 56 259 3.0 10.0 0.00 0.24 0.01 99 1003.0
20260831070003 56 253 4.0 13.0 0.00 0.24 0.01 99 1002.9
20260831064503 55 251 5.0 12.0 0.00 0.24 0.01 99 1002.8
20260831063003 55 254 3.0 8.0 0.00 0.24 0.01 99 1002.6
20260831061503 54 261 2.0 8.0 0.00 0.24 0.01 99 1002.6
20260831060003 54 270 1.0 5.0 0.00 0.24 0.01 99 1002.4
20260831054503 55 275 1.0 7.0 0.00 0.24 0.01 99 1002.3
20260831053003 56 0 0.0 0.0 0.00 0.24 0.01 99 1002.2
20260831051503 56 0 0.0 0.0 0.00 0.24 0.01 99 1002.1
20260831050003 56 0 0.0 0.0 0.00 0.24 0.01 99 1002.0
20260831044503 56 0 0.0 0.0 0.00 0.24 0.01 99 1001.9
20260831043003 56 0 0.0 0.0 0.00 0.24 0.01 99 1001.9
20260831041503 56 0 0.0 0.0 0.00 0.24 0.01 99 1001.9